Regional Weather Roundup
Issued by NWS

Home | Current Version | Previous Version | Graphics & Text | Print | Product List | Glossary On
Versions: 1 2 3 4 5 6 7 8 9 10 11 12 13 14 15 16 17 18 19 20 21 22 23 24 25 26 27 28 29 30 31 32 33 34 35 36 37 38 39 40 41 42 43 44 45 46 47 48 49 50
000
ASUS44 KMEG 271710
RWRTN
TENNESSEE HOURLY STATE WEATHER ROUNDUP
NATIONAL WEATHER SERVICE MEMPHIS TN
1100 AM CST THU NOV 27 2014

TNZ002-004-019-021-049-052-054-088>092-271800-
WEST TENNESSEE

CITY           SKY/WX    TMP DP  RH WIND       PRES   REMARKS
MEMPHIS INTL   PTSUNNY   44  29  55 N10       30.50R
NWS MEMPHIS      N/A     41 N/A N/A MISG        N/A
JACKSON        CLOUDY    38  29  70 NW13      30.48S WCI  30
DYERSBURG      CLOUDY    37  19  48 NW13      30.51S WCI  29
UNION CITY     CLOUDY    34  27  75 N16       30.48F WCI  23
PARIS          PTSUNNY   34  25  69 N12       30.46F WCI  25
HUNTINGDON     CLOUDY    34  27  76 NW10      30.47S WCI  26
LEXINGTON      CLOUDY    37  28  70 NW12      30.44S WCI  30
SAVANNAH       PTSUNNY   43  28  56 N10       30.44F
$$

TNZ008-025-027-028-033-062-065-066-271800-
NORTH MIDDLE TENNESSEE

CITY           SKY/WX    TMP DP  RH WIND       PRES   REMARKS
NASHVILLE      CLOUDY    38  26  62 NW12G21   30.41R WCI  30
CLARKSVILLE    CLOUDY    35  25  66 NW15      30.44R WCI  25
COOKEVILLE     PTSUNNY   37  30  75 N8        30.32S WCI  31
CROSSVILLE     CLOUDY    34  28  79 NW10      30.28S WCI  26
$$

TNZ061-075-076-078-094-096-097-271800-
SOUTH MIDDLE TENNESSEE

CITY           SKY/WX    TMP DP  RH WIND       PRES   REMARKS
FAYETTEVILLE   CLOUDY    37  28  70 MISG      30.37R
TULLAHOMA      CLOUDY    36  28  75 N12       30.36S WCI  27
WINCHESTER     CLOUDY    36  30  80 N8        30.36S WCI  29
MCMINNVILLE    CLOUDY    37  30  75 CALM      30.34F
COLUMBIA       PTSUNNY   41  34  75 W10       30.39S
SHELBYVILLE    PTSUNNY   39  30  70 NW12      30.39S WCI  32
$$

TNZ017-018-042-046-047-271800-
NORTHEAST TENNESSEE

CITY           SKY/WX    TMP DP  RH WIND       PRES   REMARKS
TRI CITIES     CLOUDY    39  30  70 NW9       30.19R WCI  33
ELIZABETHTON   CLOUDY    34  30  86 W5        30.17S WCI  30
$$

TNZ012-013-036-069-073-074-271800-
CENTRAL EAST TENNESSEE

CITY           SKY/WX    TMP DP  RH WIND       PRES   REMARKS
KNOXVILLE      CLOUDY    39  33  79 W7        30.28S WCI  34
OAK RIDGE      CLOUDY    40  30  67 NW6       30.30S
GATLINBURG     PTSUNNY   37  30  75 W7        30.27R WCI  32
MORRISTOWN     MOSUNNY   37  30  75 NW10      30.24S WCI  30
$$

TNZ083-085-099-271800-
SOUTHEAST TENNESSEE

CITY           SKY/WX    TMP DP  RH WIND       PRES   REMARKS
CHATTANOOGA    PTSUNNY   41  29  62 NW13      30.34R
$$

SKY/WX REPORTED AS FAIR MEANS FEW OR NO CLOUDS BELOW
12 THOUSAND FEET.




USA.gov is the U.S. government's official web portal to all federal, state and local government web resources and services.